Location: Baia Mare
(47.6567°N, 23.5850°E)
Time: 19:32:34
(UTC+03:00)

Envisat - Pass Details

Date: 30 January 2022
Orbit: 764 x 765 km, 98.2° (Epoch: 19 May)

Event Time Altitude Azimuth Distance (km) Brightness Sun altitude
Rises 03:48:47 0° 32° (NNE) 3,241 6.8 -41.2°
Reaches altitude 10° 03:52:36 10° 61° (ENE) 2,308 6.1 -40.6°
Maximum altitude 03:54:43 13° 86° (E) 2,133 5.9 -40.2°
Drops below altitude 10° 03:56:50 10° 111° (ESE) 2,301 5.9 -39.9°
Sets 04:00:37 0° 140° (SE) 3,221 6.5 -39.3°
